Overview Statistics Trail Chart Weather Telemetry Raw packets
 

This is the latest recevied weather packets stored in our database for station/object W7BTL. If no packets are shown the sender has not sent any weather packets the latest 10 day(s).

<< 31 32 33 34 35 36 37 >>
Time Temp. Humidity Pressure Rain* Wind** Luminosity Snow
1788446453 21.67° C 70% 1014.1 hPa 0 mm - 132 W/m² -
1788446149 21.11° C 71% 1013.9 hPa 0 mm - 83 W/m² -
1788445845 20.56° C 72% 1014.1 hPa 0 mm - 81 W/m² -
1788445540 20.56° C 73% 1013.9 hPa 0 mm - 70 W/m² -
1788445237 20° C 73% 1013.5 hPa 0 mm - 61 W/m² -
1788444932 20° C 75% 1013.5 hPa 0 mm - 54 W/m² -
1788444627 18.89° C 78% 1013.5 hPa 0 mm - 45 W/m² -
1788444323 18.33° C 80% 1013.6 hPa 0 mm - 38 W/m² -
1788444018 17.78° C 84% 1013.5 hPa 0 mm - 33 W/m² -
1788443714 17.22° C 86% 1013.5 hPa 0 mm - 24 W/m² -
1788443414 17.22° C 85% 1013.5 hPa 0 mm - 20 W/m² -
1788443113 17.22° C 85% 1013.4 hPa 0 mm - 16 W/m² -
1788442809 17.22° C 85% 1013.5 hPa 0 mm - 12 W/m² -
1788442506 17.22° C 85% 1013.3 hPa 0 mm - 8 W/m² -
1788442201 16.67° C 86% 1013.5 hPa 0 mm - 4 W/m² -
1788441897 16.67° C 86% 1013.5 hPa 0 mm - 2 W/m² -
1788441597 16.67° C 86% 1013.5 hPa 0 mm - 1 W/m² -
1788441292 16.67° C 85% 1013.6 hPa 0 mm - 0 W/m² -
1788440990 17.22° C 85% 1013.4 hPa 0 mm - 0 W/m² -
1788440686 17.22° C 85% 1013.4 hPa 0 mm - 0 W/m² -
1788440385 17.22° C 84% 1013.6 hPa 0 mm - 0 W/m² -
1788440085 17.22° C 83% 1013.7 hPa 0 mm - 0 W/m² -
1788439785 17.78° C 83% 1013.5 hPa 0 mm - 0 W/m² -
1788439480 17.78° C 82% 1013.5 hPa 0 mm - 0 W/m² -
1788439179 17.78° C 81% 1013.5 hPa 0 mm - 0 W/m² -

* Rain latest hour (hover to see other rain measurements)
** Current wind speed in m/s (hover to see current wind gust speed)